JILIN-01 GAOFEN 3D 27 (52444 NORAD) Tracking and Keplerian Element Data
This shows tracking and keplerian element data for the satellite.
Feedback or suggestion? Click here.
Element | Value |
Catalog | 52444 |
Name | JILIN-01 GAOFEN 3D 27 |
Epoch Orbit | 239 |
Epoch Day | 140.88609418 |
Epoch Year | 2022 |
RAAN | 205.5004 |
Inclination | 97.6807 |
Eccentricity | 0.0013692 |
Argument of Perigee | 210.723 |
Mean Anonmoly | 268.0931 |
Mean Motion | 15.09500028 |
Decay Rate | 6.521E-05 |
L1 | 1 52444U 22048B 22140.88609418 .00006521 00000+0 41003-3 0 9992 |
L2 | 2 52444 97.6807 205.5004 0013692 210.7230 268.0931 15.09500028 2393 |
Live tracking and technical data element details for JILIN-01 GAOFEN 3D 27 (NORAD 52444). JILIN-01 GAOFEN 3D 27 can be tracked NOW for your location showing map with azimuth and elevation plus other details from your city location.
Track the satellite on the map from your city or location and see movement details for azimuth, elevation, latitude, longitude, range, height, and movement on the map or in text.
IsCatalogInMostPopularTable: catalog: 52444, numindb: 6
Update: records affected: 1
GetName: 52444 JILIN-01 GAOFEN 3D 27
Hit Count: updated at: Mon, 23 May 2022 16:56:09 GMT